Weather in Bolokhovo

Russia / Tula Oblast     54°04′55″N   37°49′36″E
temp.,
°C
wind,
m/s
gust,
m/s
humid.,
%
clouds,
%
prec.,
mm/h
press.,
hPa
HPBL,
m
23 april, fri
fri2300:00+8s51284100 0.1 1017261
03:00+7s4128749 0.1 1017243
06:00+7s5138551 0.1 1017281
09:00+12s7126429 0.3 1016719
12:00+15s8114395 0.0 10152417
15:00+14s8115614 0.4 10141542
18:00+9wnw6990100 1.0 1014455
21:00+7nw2391100 3.6 1013224
24 april, sat
sat2400:00+6n2292100 2.5 1011220
03:00+5wnw6594100 10.3 1009649
06:00+4wnw4797100 2.6 1009656
09:00+4w4795100 4.0 1008624
12:00+7wnw576493 0.5 10081441
15:00+8wsw7960100 1.7 10081501
18:00+7w676217 0.4 10071345
21:00+3w5109072 0.8 1008570
25 april, sun
sun2500:00+1wnw81597100 5.7 1009935
03:00+1w7148699 6.1 1011533
06:000wsw612915 0.0 1012445
09:00+3wsw7108024 0.0 1013886
12:00+6wsw7115795 0.7 10131999
15:00+8sw8115196 1.1 10122159
18:00+4sw7119060 1.8 1012980
21:00+3wsw489271 2.1 1013454
26 april, mon
mon2600:00+1wsw49905 0.0 1014226
03:000sw48895 0.0 1014220
06:000sw49885 0.0 1014293
09:00+4wsw57675 0.0 1014908
12:00+7wsw565155 0.4 10131736
15:00+8w564574 0.9 10122006
18:00+8wsw234518 0.0 10111617
21:00+3ssw3669100 0.0 1011111
27 april, tue
tue2700:00+2w2371100 0.0 101053
03:00+2wsw3580100 0.1 1009136
06:00+1wnw2398100 1.0 1009134
09:00+2wnw4795100 3.1 1009469
12:00+5w5662100 0.6 10081319
15:00+7w574989 1.6 10081859
18:00+6w586074 0.9 1008989
21:00+2wsw49795 1.0 1010193